Overview Statistics Trail Chart Weather Telemetry Raw packets
 

This is the latest recevied weather packets stored in our database for station/object KB4MLW-13. If no packets are shown the sender has not sent any weather packets the latest 10 day(s).

<< 96 97 98 99 100 101 102 >>
Time Temp. Humidity Pressure Rain* Wind** Luminosity Snow
1788217228 32.22° C 65% 1000.7 hPa 0 mm - - -
1788217168 32.22° C 64% 1000.7 hPa 0 mm - - -
1788217079 32.22° C 63% 1000.7 hPa 0 mm - - -
1788217018 32.22° C 65% 1000.6 hPa 0 mm - - -
1788216961 32.22° C 64% 1000.3 hPa 0 mm - - -
1788216898 32.22° C 63% 1000.6 hPa 0 mm - - -
1788216838 32.22° C 63% 1000.5 hPa 0 mm - - -
1788216778 32.22° C 65% 1000.5 hPa 0 mm - - -
1788216690 32.22° C 63% 1000.6 hPa 0 mm - - -
1788216628 32.22° C 66% 1000.6 hPa 0 mm - - -
1788216539 32.22° C 63% 1000.7 hPa 0 mm - - -
1788216478 32.22° C 63% 1000.7 hPa 0 mm - - -
1788216418 32.22° C 63% 1000.7 hPa 0 mm - - -
1788216338 32.78° C 63% 1000.7 hPa 0 mm - - -
1788216240 32.78° C 64% 1000.9 hPa 0 mm - - -
1788216178 32.78° C 65% 1000.8 hPa 0 mm - - -
1788216089 32.78° C 62% 1000.5 hPa 0 mm - - -
1788216028 32.78° C 64% 1000.9 hPa 0 mm - - -
1788215939 32.78° C 63% 1000.7 hPa 0 mm - - -
1788215849 32.78° C 60% 1000.6 hPa 0 mm - - -
1788215788 32.78° C 60% 1000.6 hPa 0 mm - - -
1788215728 32.78° C 61% 1000.7 hPa 0 mm - - -
1788215668 32.78° C 61% 1000.7 hPa 0 mm - - -
1788215579 32.78° C 62% 1000.8 hPa 0 mm - - -
1788215518 32.78° C 63% 1000.7 hPa 0 mm - - -

* Rain latest hour (hover to see other rain measurements)
** Current wind speed in m/s (hover to see current wind gust speed)